GW4111 Weather Reports


Display with metric or nautical units.
time (UTC)temp
F
wind
direction
speed
MPH
gust
MPH
rain 1hr
in
rain 24hr
in
rain mn
in
humidity
%
barometer
mb
20260507130038 42 90 0.0 4.0 0.00 0.02 0.00 64 1012.2
20260507124537 41 113 0.0 3.0 0.00 0.05 0.00 47 1012.3
20260507123036 40 18 0.0 1.0 0.00 0.05 0.00 100 1012.4
20260507121540 39 71 0.0 1.0 0.00 0.05 0.00 100 1012.4
20260507120039 39 0 0.0 1.0 0.00 0.05 0.00 100 1012.7
20260507114538 40 0 0.0 0.0 0.00 0.08 0.00 100 1012.7
20260507113038 40 0 0.0 1.0 0.00 0.08 0.00 100 1012.8
20260507111543 40 0 0.0 0.0 0.00 0.08 0.00 100 1012.4
20260507110037 40 0 0.0 1.0 0.00 0.08 0.00 100 1011.9
20260507104540 39 0 0.0 0.0 0.00 0.11 0.00 100 1011.8
20260507103041 39 0 0.0 0.0 0.00 0.11 0.00 100 1011.7
20260507101546 39 0 0.0 0.0 0.00 0.11 0.00 100 1011.7
20260507100042 38 0 0.0 0.0 0.00 0.11 0.00 100 1011.7
20260507094544 38 0 0.0 0.0 0.00 0.19 0.00 100 1011.7
20260507093042 38 0 0.0 0.0 0.00 0.19 0.00 100 1011.7
20260507091541 38 0 0.0 0.0 0.00 0.19 0.00 100 1011.5
20260507090038 37 0 0.0 0.0 0.00 0.19 0.00 100 1011.6
20260507084539 36 0 0.0 0.0 0.00 0.26 0.00 100 1011.7
20260507083039 36 0 0.0 0.0 0.00 0.26 0.00 100 1011.7
20260507081539 37 0 0.0 0.0 0.00 0.26 0.00 100 1011.7
20260507080040 37 0 0.0 0.0 0.00 0.26 0.00 100 1011.7
20260507074540 37 0 0.0 0.0 0.00 0.32 0.00 100 1011.6
20260507073039 37 0 0.0 0.0 0.00 0.32 0.00 100 1011.4
20260507071539 38 0 0.0 0.0 0.00 0.32 0.00 100 1011.5
20260507070038 39 0 0.0 0.0 0.00 0.32 0.00 100 1011.6
20260507064538 38 0 0.0 0.0 0.00 0.38 0.00 100 1011.8
20260507063045 40 0 0.0 0.0 0.00 0.38 0.00 100 1012.0
20260507061541 40 0 0.0 0.0 0.00 0.38 0.00 100 1012.0
20260507060050 41 0 0.0 0.0 0.00 0.38 0.00 100 1012.1
20260507054546 41 0 0.0 0.0 0.00 0.47 0.00 100 1012.1
20260507053041 41 0 0.0 0.0 0.00 0.47 0.00 100 1012.3
20260507051538 41 0 0.0 0.0 0.00 0.47 0.00 100 1012.4
20260507050038 41 0 0.0 0.0 0.00 0.47 0.00 100 1012.7
20260507044553 42 0 0.0 0.0 0.00 0.58 0.00 100 1012.6
20260507043038 42 0 0.0 0.0 0.00 0.58 0.00 100 1012.7
20260507041538 42 0 0.0 1.0 0.00 0.58 0.00 100 1012.5
20260507040039 42 0 0.0 0.0 0.00 0.58 0.00 100 1012.6
20260507034541 42 0 0.0 0.0 0.00 0.61 0.58 100 1012.5
20260507033035 42 0 0.0 0.0 0.00 0.61 0.58 100 1012.4
20260507031539 42 0 0.0 0.0 0.00 0.61 0.58 100 1012.5
20260507030038 42 0 0.0 1.0 0.00 0.61 0.58 100 1012.6
20260507024542 42 0 0.0 1.0 0.00 0.67 0.58 100 1012.4
20260507023038 42 0 0.0 1.0 0.00 0.67 0.58 100 1012.4
20260507021537 42 0 0.0 1.0 0.00 0.67 0.58 100 1012.4
20260507020045 42 0 0.0 1.0 0.00 0.67 0.58 100 1012.7
20260507014538 42 0 0.0 1.0 0.00 0.68 0.58 100 1012.8
20260507013045 42 0 0.0 0.0 0.00 0.68 0.58 100 1012.7
20260507011541 42 0 0.0 0.0 0.00 0.68 0.58 100 1012.5
20260507010043 42 0 0.0 0.0 0.00 0.68 0.58 100 1012.3
20260507004538 42 0 0.0 0.0 0.00 0.82 0.58 100 1012.2
20260507003035 42 0 0.0 0.0 0.00 0.82 0.58 100 1012.0
20260507001542 42 0 0.0 0.0 0.00 0.82 0.58 100 1011.9
20260507000040 42 0 0.0 0.0 0.00 0.82 0.58 100 1011.9
20260506234541 42 0 0.0 0.0 0.00 0.95 0.58 100 1011.6
20260506233038 42 0 0.0 3.0 0.00 0.95 0.58 100 1011.8
20260506231540 42 0 0.0 3.0 0.00 0.95 0.58 100 1011.6
20260506230035 42 0 0.0 2.0 0.00 0.95 0.58 100 1011.4
20260506224554 42 0 0.0 3.0 0.00 1.04 0.58 100 1011.2
20260506223038 42 0 1.0 3.0 0.00 1.04 0.58 100 1011.0
20260506221539 42 352 0.0 7.0 0.00 1.04 0.58 100 1010.7
20260506220039 42 329 3.0 6.0 0.00 1.04 0.58 100 1010.7
20260506214542 42 0 0.0 8.0 0.00 1.25 0.58 100 1010.6
20260506213041 43 295 3.0 11.0 0.00 1.25 0.58 100 1010.4
20260506211539 44 319 3.0 11.0 0.00 1.25 0.58 100 1010.0
20260506210040 46 0 4.0 9.0 0.00 1.25 0.58 100 1009.9
20260506204538 49 281 4.0 11.0 0.00 1.27 0.58 24 1009.4
20260506203040 50 228 7.0 15.0 0.00 1.27 0.58 47 1009.2
20260506201538 50 226 4.0 10.0 0.00 1.27 0.58 46 1009.1
20260506200037 50 210 1.0 6.0 0.00 1.27 0.58 34 1009.2
20260506194543 50 238 3.0 6.0 0.00 1.27 0.58 24 1009.2
20260506193034 50 0 0.0 0.0 0.00 1.27 0.58 11 1009.3
20260506191539 50 0 0.0 0.0 0.00 1.27 0.58 19 1009.3
20260506190039 50 0 0.0 2.0 0.00 1.27 0.58 12 1009.1
20260506184538 50 0 0.0 2.0 0.00 1.27 0.58 4 1009.1
20260506183039 50 0 0.0 1.0 0.00 1.27 0.58 5 1009.1
20260506181544 49 0 0.0 3.0 0.00 1.27 0.58 100 1009.3
20260506180043 49 0 0.0 0.0 0.00 1.27 0.58 100 1009.2
20260506174539 48 0 0.0 1.0 0.00 1.27 0.58 100 1009.3
20260506173041 48 0 0.0 3.0 0.00 1.27 0.58 100 1009.3
20260506171551 48 0 0.0 2.0 0.00 1.27 0.58 100 1009.3
20260506170039 48 0 0.0 0.0 0.00 1.27 0.58 100 1009.4
20260506164540 47 0 0.0 1.0 0.00 1.27 0.58 100 1009.3
20260506163043 47 0 0.0 1.0 0.00 1.27 0.58 100 1009.0
20260506161538 48 0 0.0 1.0 0.00 1.27 0.58 100 1009.1
20260506160039 47 0 0.0 1.0 0.00 1.27 0.58 100 1009.0
20260506154539 47 0 0.0 1.0 0.00 1.27 0.58 100 1009.1
20260506153041 47 0 0.0 1.0 0.00 1.27 0.58 100 1009.0
20260506151540 47 0 0.0 2.0 0.01 1.27 0.58 100 1008.8
20260506150039 47 0 0.0 0.0 0.01 1.27 0.58 100 1008.9
20260506144546 46 30 0.0 3.0 0.02 1.27 0.58 100 1008.7
20260506143038 46 0 0.0 0.0 0.02 1.27 0.58 100 1008.6
20260506141534 45 0 0.0 1.0 0.01 1.26 0.57 100 1008.8
20260506140054 45 0 0.0 2.0 0.01 1.26 0.57 100 1008.6
20260506134539 45 0 0.0 1.0 0.01 1.25 0.56 100 1008.4
20260506133045 45 0 0.0 0.0 0.02 1.25 0.56 100 1008.3
20260506131538 45 0 0.0 2.0 0.03 1.25 0.56 100 1008.2